Arctic Village, AK

4:50 PM AKDT on August 28, 2016 (GMT -0800)
Arctic Village

Weather History for PARC - April, 2014

Change the Weather History Date:

Saturday, April 12, 2014

  Actual Average Record
Temperature  
Mean Temperature -4 °F -  
Max Temperature 10 °F 26 °F 40 °F (1966)
Min Temperature -18 °F -5 °F -28 °F (1992)
Degree Days  
Heating Degree Days 69    
Moisture  
Dew Point -16 °F    
Average Humidity 42    
Maximum Humidity 84    
Minimum Humidity 20    
Precipitation  
Precipitation 0.00 in - - ()
Sea Level Pressure  
Sea Level Pressure 30.09 in    
Wind  
Wind Speed 3 mph (NE)    
Max Wind Speed 8 mph    
Max Gust Speed -    
Visibility 10 miles    
Events      
Averages and records for this station are not official NWS values.
T = Trace of Precipitation, MM = Missing Value Source: NWS Daily Summary

Daily Weather History Graph

Daily Weather History Graph

Search for Another Location

Airport or City:

Trip Planner

Search our weather history database for the weather conditions in past years. The results will help you decide how hot, cold, wet, or windy it might be!

Date:

Astronomy

Apr. 12, 2014 Rise Set
Actual Time 6:02 AM AKDT 9:25 PM AKDT
Civil Twilight 4:55 AM AKDT 10:34 PM AKDT
Nautical Twilight 2:58 AM AKDT 12:39 AM AKDT
Astronomical Twilight Sun does not set Sun does not set
Moon 6:15 PM AKDT (4/12) 5:45 AM AKDT (4/12)
Length of Visible Light 17h 38m
Length of Day
15h 23m
Waxing Gibbous, 93% of the Moon is Illuminated
Apr 12
Waxing Gibbous
Apr 14
Full
Apr 21
Last Quarter
Apr 28
New
May 6
First Quarter

Hourly Weather History & Observations

Time (AKDT) Temp. Windchill Dew Point Humidity Pressure Visibility Wind Dir Wind Speed Gust Speed Precip Events Conditions
12:16 AM -5.8 °F -18.4 °F - N/A% 30.19 in 10.0 mi NE 5.8 mph - N/A   Clear
12:36 AM -5.8 °F -21.2 °F - N/A% 30.19 in 10.0 mi NE 8.1 mph - N/A   Clear
12:56 AM -11.2 °F -20.6 °F - N/A% 30.20 in 10.0 mi SE 3.5 mph - N/A   Clear
1:16 AM -7.6 °F -16.5 °F -27.4 °F 38% 30.20 in 10.0 mi East 3.5 mph - N/A   Clear
1:36 AM -7.6 °F -16.5 °F -22.0 °F 50% 30.19 in 10.0 mi East 3.5 mph - N/A   Clear
1:56 AM -7.6 °F -18.8 °F -18.4 °F 59% 30.19 in 10.0 mi ENE 4.6 mph - N/A   Clear
2:16 AM -7.6 °F -16.5 °F -11.2 °F 84% 30.19 in 10.0 mi ENE 3.5 mph - N/A   Clear
2:36 AM -9.4 °F - -27.4 °F 41% 30.19 in 10.0 mi Calm Calm - N/A   Clear
2:56 AM -11.2 °F -23.0 °F - N/A% 30.19 in 10.0 mi ENE 4.6 mph - N/A   Clear
3:16 AM -11.2 °F - - N/A% 30.19 in 10.0 mi Calm Calm - N/A   Clear
3:36 AM -9.4 °F -18.6 °F - N/A% 30.18 in 10.0 mi ENE 3.5 mph - N/A   Clear
3:56 AM -9.4 °F -18.6 °F - N/A% 30.18 in 10.0 mi ENE 3.5 mph - N/A   Clear
4:16 AM -11.2 °F - - N/A% 30.18 in 10.0 mi Calm Calm - N/A   Clear
4:36 AM -11.2 °F -20.6 °F -29.2 °F 41% 30.17 in 10.0 mi ENE 3.5 mph - N/A   Clear
4:56 AM -13.0 °F -22.7 °F -25.6 °F 53% 30.18 in 10.0 mi NNE 3.5 mph - N/A   Clear
5:16 AM -16.6 °F -26.8 °F -29.2 °F 53% 30.17 in 10.0 mi NNE 3.5 mph - N/A   Clear
5:36 AM -18.4 °F -31.4 °F - N/A% 30.17 in 10.0 mi East 4.6 mph - N/A   Clear
5:56 AM -16.6 °F - - N/A% 30.16 in 9.0 mi Calm Calm - N/A   Clear
6:16 AM -14.8 °F - - N/A% 30.16 in 10.0 mi Calm Calm - N/A   Clear
6:36 AM -13.0 °F -22.7 °F - N/A% 30.16 in 10.0 mi NNE 3.5 mph - N/A   Clear
6:56 AM -18.4 °F -28.9 °F - N/A% 30.16 in 10.0 mi NE 3.5 mph - N/A   Clear
7:16 AM -16.6 °F -26.8 °F - N/A% 30.15 in 10.0 mi NNE 3.5 mph - N/A   Clear
7:36 AM -14.8 °F -24.8 °F - N/A% 30.15 in 10.0 mi NE 3.5 mph - N/A   Clear
7:56 AM -14.8 °F -24.8 °F - N/A% 30.15 in 10.0 mi NNE 3.5 mph - N/A   Clear
8:16 AM -11.2 °F -20.6 °F -23.8 °F 54% 30.15 in 10.0 mi NE 3.5 mph - N/A   Clear
8:36 AM -11.2 °F -20.6 °F -14.8 °F 84% 30.14 in 10.0 mi NNE 3.5 mph - N/A   Clear
8:56 AM -9.4 °F -20.9 °F -20.2 °F 59% 30.13 in 10.0 mi NE 4.6 mph - N/A   Clear
9:16 AM -7.6 °F -16.5 °F - N/A% 30.14 in 10.0 mi NE 3.5 mph - N/A   Clear
9:36 AM -7.6 °F - - N/A% 30.13 in 10.0 mi Calm Calm - N/A   Clear
9:56 AM -5.8 °F - - N/A% 30.13 in 10.0 mi Calm Calm - N/A   Clear
10:16 AM -4.0 °F - - N/A% 30.13 in 10.0 mi Calm Calm - N/A   Clear
10:36 AM -4.0 °F - -29.2 °F 29% 30.12 in 10.0 mi Calm Calm - N/A   Clear
10:56 AM -0.4 °F - -20.2 °F 39% 30.12 in 10.0 mi Calm Calm - N/A   Clear
11:16 AM -0.4 °F - -13.0 °F 55% 30.12 in 10.0 mi Calm Calm - N/A   Clear
11:36 AM -0.4 °F - -18.4 °F 43% 30.11 in 10.0 mi Calm Calm - N/A   Clear
11:56 AM 1.4 °F - -11.2 °F 56% 30.11 in 10.0 mi Calm Calm - N/A   Clear
12:16 PM 3.2 °F -4.2 °F -11.2 °F 51% 30.10 in 10.0 mi ENE 3.5 mph - N/A   Clear
12:36 PM 3.2 °F - -18.4 °F 36% 30.10 in 10.0 mi Calm Calm - N/A   Clear
12:56 PM 5.0 °F - - N/A% 30.09 in 10.0 mi Calm Calm - N/A   Clear
1:16 PM 6.8 °F -0.1 °F -27.4 °F 20% 30.09 in 10.0 mi East 3.5 mph - N/A   Clear
1:36 PM 6.8 °F - -23.8 °F 23% 30.09 in 10.0 mi Calm Calm - N/A   Clear
1:56 PM 6.8 °F - -18.4 °F 31% 30.09 in 10.0 mi Calm Calm - N/A   Clear
2:16 PM 8.6 °F - -20.2 °F 26% 30.08 in 10.0 mi Calm Calm - N/A   Clear
2:36 PM 8.6 °F - -20.2 °F 26% 30.08 in 10.0 mi Calm Calm - N/A   Clear
2:56 PM 8.6 °F - -16.6 °F 31% 30.07 in 10.0 mi Calm Calm - N/A   Clear
3:16 PM 10.4 °F - -11.2 °F 37% 30.07 in 10.0 mi Calm Calm - N/A   Clear
3:36 PM 10.4 °F - -11.2 °F 37% 30.06 in 10.0 mi Calm Calm - N/A   Clear
3:56 PM 10.4 °F 4.0 °F -9.4 °F 41% 30.06 in 10.0 mi East 3.5 mph - N/A   Clear
4:16 PM 10.4 °F 4.0 °F -9.4 °F 41% 30.05 in 10.0 mi ENE 3.5 mph - N/A   Clear
4:36 PM 10.4 °F - -11.2 °F 37% 30.04 in 10.0 mi Calm Calm - N/A   Clear
4:56 PM 10.4 °F - -9.4 °F 41% 30.03 in 10.0 mi Calm Calm - N/A   Clear
5:16 PM 10.4 °F - -9.4 °F 41% 30.03 in 10.0 mi Calm Calm - N/A   Clear
5:36 PM 10.4 °F - -11.2 °F 37% 30.03 in 10.0 mi Calm Calm - N/A   Clear
5:56 PM 10.4 °F - -9.4 °F 41% 30.02 in 10.0 mi Calm Calm - N/A   Clear
6:16 PM 10.4 °F - -7.6 °F 44% 30.01 in 10.0 mi Calm Calm - N/A   Clear
6:36 PM 10.4 °F - -11.2 °F 37% 30.01 in 10.0 mi Calm Calm - N/A   Clear
6:56 PM 10.4 °F - -9.4 °F 41% 30.01 in 10.0 mi Calm Calm - N/A   Clear
7:16 PM 10.4 °F - -9.4 °F 41% 30.01 in 10.0 mi Calm Calm - N/A   Clear
7:36 PM 10.4 °F - -9.4 °F 41% 30.00 in 10.0 mi Calm Calm - N/A   Clear
7:56 PM 10.4 °F - -11.2 °F 37% 30.00 in 10.0 mi Calm Calm - N/A   Clear
8:16 PM 10.4 °F - -9.4 °F 41% 30.00 in 10.0 mi Calm Calm - N/A   Clear
8:36 PM 10.4 °F - -7.6 °F 44% 29.99 in 10.0 mi Calm Calm - N/A   Clear
8:56 PM 10.4 °F - -11.2 °F 37% 29.99 in 8.0 mi Calm Calm - N/A   Clear
9:16 PM 8.6 °F 2.0 °F -11.2 °F 40% 29.98 in 10.0 mi NE 3.5 mph - N/A   Clear
9:36 PM 8.6 °F - -4.0 °F 57% 29.98 in 10.0 mi Calm Calm - N/A   Clear
9:56 PM 8.6 °F - -7.6 °F 48% 29.98 in 8.0 mi Calm Calm - N/A   Clear
10:16 PM 6.8 °F - -22.0 °F 26% 29.98 in 10.0 mi Calm Calm - N/A   Clear
10:36 PM 5.0 °F - - N/A% 29.98 in 10.0 mi Calm Calm - N/A   Clear
10:56 PM 5.0 °F -2.1 °F -25.6 °F 23% 29.98 in 10.0 mi NE 3.5 mph - N/A   Clear
11:16 PM 5.0 °F -4.1 °F -22.0 °F 28% 29.98 in 10.0 mi North 4.6 mph - N/A   Clear
11:36 PM 6.8 °F - -16.6 °F 34% 29.98 in 10.0 mi Calm Calm - N/A   Clear
11:56 PM 5.0 °F - -16.6 °F 36% 29.98 in 10.0 mi Calm Calm - N/A   Mostly Cloudy